Satellite-Ground Cal/Val Site Overpasses Predictions

Prediction of Satellite NPP Overpassing Cal/Val Site: Antarctic Dome C

Ground Cal/Val Site Location: Latitude: -75.10, Longitude: 123.35; Satellite-Ground Site NADIR distance within 100 km.

Table of predicted overpasses for the next 14.0 days since TLE Epoch: 9/9/2023
Interval Starting Time Ending Time Minimum Distance Time Minimum Distance (km)
1 09/11/2023 14:56:02 09/11/2023 14:56:31 09/11/2023 14:56:16 19.70
2 09/12/2023 14:37:19 09/12/2023 14:37:33 09/12/2023 14:37:26 87.48
3 09/13/2023 07:38:51 09/13/2023 07:39:18 09/13/2023 07:39:04 38.78
4 09/14/2023 07:20:04 09/14/2023 07:20:24 09/14/2023 07:20:14 71.25
5 09/16/2023 15:02:16 09/16/2023 15:02:40 09/16/2023 15:02:28 56.52
6 09/17/2023 14:43:25 09/17/2023 14:43:50 09/17/2023 14:43:38 52.79
7 09/18/2023 07:45:06 09/18/2023 07:45:26 09/18/2023 07:45:16 73.81
8 09/19/2023 07:26:11 09/19/2023 07:26:39 09/19/2023 07:26:25 34.09
9 09/21/2023 15:08:35 09/21/2023 15:08:44 09/21/2023 15:08:40 94.06
